Wind_Speed
7 7 7 6 5 5 5 5 4 4 3 3 3 3 2 3 3 3 3 2 2 1 1 1 1 1 2 2 3 3 3 3 3 3 3 3 4 4 5 5 5 5 6
6 6 6 6 5 5 4 4 3 3 3 2 2 2 2 2 2 2 2 1 1 0 1 1 2 2 3 3 4 4 4 4 4 5 5 5 6 6 6 6 7 7 8
5 5 5 5 5 4 4 3 3 3 2 2 1 1 1 1 1 1 1 1 1 1 2 2 3 3 3 3 4 4 5 5 5 6 6 7 7 7 7 8 8 9 9
5 5 5 4 3 3 3 2 2 2 2 1 1 0 0 1 1 1 1 1 2 2 3 3 4 4 4 5 5 5 6 6 6 7 7 8 8 8 8 9 9 9 10
4 4 4 4 4 4 3 2 1 1 1 1 1 1 1 2 2 2 2 3 3 3 4 5 5 5 6 7 7 7 7 7 8 8 8 9 9 9 8 9 10 10 11
4 3 3 4 4 3 3 2 2 2 2 2 2 2 3 3 3 3 4 4 5 5 6 6 7 7 7 7 7 8 8 9 9 10 10 9 9 10 10 10 11 11 12
4 4 3 3 3 3 3 3 3 3 3 2 3 3 3 4 4 5 6 6 6 7 7 7 7 8 8 8 8 9 10 10 11 11 11 11 11 12 12 12 12 12 13
4 4 4 3 3 3 4 4 3 3 3 3 4 4 5 4 5 6 6 7 7 8 8 8 8 9 9 9 10 11 11 12 12 13 13 13 13 13 14 14 14 14 14
4 4 3 4 4 4 4 4 5 4 4 4 5 5 4 5 6 7 7 7 8 9 9 9 9 9 10 11 11 12 12 12 13 14 14 14 14 15 15 16 16 17 17
4 5 5 5 5 6 5 5 5 5 5 6 6 6 6 7 8 8 8 8 9 9 9 10 10 10 10 11 12 12 12 13 14 15 15 15 16 16 17 16 17 18 18
5 6 6 6 7 7 7 7 6 6 7 8 8 8 8 8 9 9 9 10 10 10 10 11 11 11 12 12 13 13 14 14 15 15 16 17 17 18 17 17 18 18 19
6 6 7 7 7 8 8 8 8 7 8 9 9 9 9 9 9 9 10 10 11 11 11 12 12 12 13 13 13 14 15 16 16 17 17 18 18 18 18 18 19 19 20
7 7 8 8 9 9 9 9 9 8 9 9 9 10 10 10 10 10 10 11 12 13 13 13 13 14 15 15 15 16 17 17 17 17 18 19 19 19 19 20 20 21 21
9 9 10 10 10 10 10 9 9 9 9 9 10 10 10 10 11 11 12 12 13 14 14 14 15 15 16 16 16 16 17 17 17 17 18 19 19 20 21 22 22 22 23
10 11 11 11 11 11 11 11 10 10 10 11 11 11 11 11 12 12 13 13 14 15 16 16 16 16 16 16 16 17 18 18 19 19 20 20 21 22 23 23 23 23 23
12 12 12 12 12 12 12 12 12 12 12 12 12 13 13 13 13 13 14 15 15 16 17 17 18 18 19 19 19 20 20 20 20 21 21 22 22 23 23 23 24 25 25
13 13 13 13 13 13 13 13 13 13 13 14 14 14 14 14 14 15 15 16 16 16 17 18 19 20 20 21 22 22 22 22 22 22 22 23 23 24 24 25 25 26 27
14 15 15 15 15 14 14 14 15 15 14 15 15 15 15 16 16 16 17 18 18 18 19 20 20 21 22 22 22 23 24 24 24 24 25 25 26 26 26 27 28 29 29
16 16 16 16 15 15 16 16 17 17 16 16 17 17 18 18 19 19 20 21 21 21 21 21 22 22 23 24 24 25 25 26 26 27 27 28 28 29 29 29 30 31 31
17 16 15 16 16 17 17 18 19 19 18 19 19 20 20 21 21 22 22 23 23 23 23 23 23 24 24 25 25 26 27 28 28 28 29 29 30 30 30 30 31 31 32
16 16 16 17 18 18 18 19 19 19 19 20 21 22 22 22 23 23 24 24 24 24 24 24 24 24 25 25 26 27 29 29 30 31 31 31 32 33 33 33 33 33 33
16 16 17 18 18 19 19 20 20 20 20 20 21 21 22 23 24 24 24 23 23 24 24 25 25 25 26 27 27 29 30 30 31 32 32 33 33 33 34 34 34 34 34
17 17 18 18 19 20 21 21 20 20 21 21 22 22 23 24 24 24 24 24 24 24 25 25 25 26 27 28 29 29 30 31 31 31 31 32 33 33 33 33 34 34 34
18 18 19 19 20 20 20 20 21 22 23 22 22 23 24 24 24 24 25 24 25 26 26 27 27 28 29 29 30 30 30 31 31 31 32 32 33 33 32 32 32 33 34
20 20 20 20 20 21 22 22 23 23 23 24 24 24 24 25 25 25 24 25 26 26 27 27 28 28 29 30 30 31 31 32 32 32 33 33 33 33 33 33 33 34 35
21 20 20 21 22 23 24 24 24 25 26 25 25 24 24 25 25 25 25 26 26 27 28 28 29 29 30 30 31 31 31 32 32 33 33 33 33 33 33 33 34 34 34
Wind_Direction
87 85 81 79 83 84 77 78 86 99 96 88 91 93 97 96 89 90 91 92 98 103 123 190 241 265 252 249 249 256 261 254 256 260 261 256 258 254 257 258 260 255 253
86 87 84 78 78 77 69 73 84 83 83 82 90 97 97 86 74 77 86 88 78 341 305 279 279 277 269 265 264 266 267 260 261 269 270 267 266 264 262 261 259 257 255
74 75 78 81 78 74 75 87 83 71 61 67 99 110 87 83 45 47 43 33 5 325 306 290 288 286 280 275 280 273 270 272 273 274 275 274 272 269 265 264 262 260 258
66 67 74 74 70 66 63 73 78 69 52 54 66 211 252 291 272 300 315 326 315 312 306 295 288 285 280 278 280 274 272 274 277 278 277 276 273 271 267 265 263 263 260
61 67 63 58 51 54 55 47 55 17 355 349 339 298 267 273 275 298 290 284 295 299 299 292 285 284 282 280 278 275 273 275 277 279 280 278 273 271 273 269 264 265 264
55 62 58 43 35 36 33 22 357 323 318 321 325 314 287 271 271 285 289 288 293 290 288 290 286 283 284 281 278 280 278 276 276 274 277 278 274 273 275 273 267 269 268
49 46 38 31 25 15 6 352 336 319 310 324 326 311 290 277 277 281 283 284 286 284 283 285 289 286 286 284 282 282 280 274 276 276 276 276 274 274 274 275 270 269 269
26 18 9 2 354 352 351 343 343 338 326 321 320 316 304 290 288 289 288 285 285 288 289 289 290 289 288 284 284 282 278 274 273 275 275 277 277 277 277 275 270 269 269
3 353 345 345 345 342 335 328 328 328 322 314 307 307 302 299 297 292 289 289 289 287 286 285 287 289 288 286 287 284 280 278 277 277 276 279 280 279 277 275 273 270 269
349 344 336 332 330 328 326 319 317 317 316 315 309 303 298 297 298 293 294 293 292 289 289 289 286 287 289 287 289 287 282 281 281 279 278 279 278 279 278 276 276 273 271
341 336 327 324 323 323 326 321 315 312 315 316 314 308 302 298 294 290 291 291 290 289 290 291 289 286 287 287 288 289 284 283 282 279 278 279 279 279 279 275 273 272 270
337 329 321 316 314 314 317 319 315 309 308 311 313 308 303 300 292 289 290 290 290 290 290 291 290 287 287 287 286 284 283 282 281 279 278 278 277 277 277 275 273 273 271
329 322 316 312 309 309 308 309 306 307 307 307 309 307 302 299 296 291 290 290 290 291 291 290 289 287 287 286 287 286 283 283 281 280 280 279 276 275 277 276 275 274 273
321 316 312 310 307 306 304 306 306 302 303 302 298 303 303 302 298 293 291 290 291 293 292 292 292 288 287 286 287 287 286 284 282 281 281 280 278 277 276 275 274 275 274
315 311 309 310 304 303 305 305 304 300 297 299 296 296 298 300 300 297 296 294 293 293 292 293 294 292 290 289 290 289 288 286 285 284 283 282 281 281 278 276 274 274 274
314 312 307 308 303 300 298 297 297 297 294 295 295 295 298 299 299 302 302 298 295 293 292 291 292 293 290 289 289 288 290 290 289 288 285 283 283 284 282 278 277 275 276
311 311 308 304 301 300 300 299 298 297 295 298 298 299 300 300 300 301 302 301 297 293 291 290 290 290 290 289 288 289 289 289 289 288 287 285 285 285 284 281 280 279 278
309 307 306 306 305 298 295 295 295 293 293 298 299 298 299 299 299 300 300 300 299 298 295 293 292 291 290 290 290 289 288 288 290 288 287 286 285 284 284 282 281 280 279
307 305 303 303 302 300 294 294 295 291 290 293 295 294 298 297 298 299 300 299 298 298 297 296 295 293 292 291 291 291 291 290 290 288 287 286 284 284 284 283 282 280 279
307 302 301 303 301 300 297 295 294 293 291 292 294 293 294 295 296 297 298 299 297 295 296 297 297 295 294 294 293 293 293 292 291 290 288 287 285 284 284 283 283 282 281
304 300 301 302 301 301 303 300 296 293 292 292 292 293 293 295 295 296 296 298 297 295 295 297 297 296 295 295 295 295 293 292 292 292 290 289 288 286 285 284 284 283 283
301 300 301 302 302 303 304 302 300 296 292 293 293 295 296 296 296 296 296 298 298 297 295 297 297 297 297 297 297 297 297 295 295 294 293 292 291 289 287 284 283 283 282
298 299 301 300 300 302 304 302 300 298 294 295 294 295 298 298 296 295 296 297 298 298 298 298 298 298 298 298 298 298 298 297 296 296 296 296 294 292 289 287 285 284 284
300 298 301 301 301 303 302 300 301 301 299 296 297 299 298 300 298 296 296 298 298 297 297 297 298 298 299 299 298 298 298 297 297 298 298 297 296 294 291 289 288 288 287
299 298 299 300 301 302 301 302 302 303 301 299 298 300 299 299 299 299 297 296 297 297 297 297 298 298 298 299 298 298 298 297 296 297 297 296 295 295 293 291 290 289 288
297 298 298 299 299 300 301 301 302 302 300 298 298 298 297 297 299 301 299 299 298 299 299 299 299 299 299 300 300 299 299 298 296 296 295 295 295 295 294 293 292 290 288
Height
5885 5885 5886 5886 5886 5886 5887 5887 5887 5887 5888 5888 5888 5888 5889 5889 5889 5889 5889 5889 5890 5890 5890 5890 5890 5890 5890 5890 5890 5890 5891 5891 5892 5892 5892 5892 5892 5893 5893 5894 5894 5894 5895
5886 5887 5887 5887 5887 5887 5887 5887 5888 5888 5888 5889 5889 5889 5889 5889 5889 5889 5889 5889 5890 5890 5890 5890 5890 5890 5890 5890 5890 5890 5890 5891 5891 5891 5891 5891 5891 5891 5892 5892 5892 5893 5893
5887 5888 5888 5888 5888 5888 5888 5888 5888 5888 5889 5889 5889 5889 5889 5889 5890 5890 5889 5889 5889 5889 5889 5889 5889 5889 5889 5889 5889 5889 5889 5890 5890 5890 5890 5890 5890 5890 5890 5890 5890 5891 5891
5889 5889 5889 5889 5889 5889 5889 5889 5888 5889 5889 5889 5889 5889 5889 5889 5889 5889 5889 5889 5889 5889 5889 5889 5889 5888 5888 5888 5888 5888 5888 5888 5888 5888 5888 5888 5888 5888 5888 5888 5888 5888 5889
5890 5890 5890 5890 5889 5889 5890 5890 5889 5889 5889 5889 5889 5889 5889 5889 5889 5889 5889 5888 5888 5888 5888 5887 5887 5887 5887 5887 5887 5887 5886 5886 5886 5886 5886 5886 5886 5886 5886 5886 5886 5886 5886
5891 5891 5891 5891 5890 5890 5890 5890 5890 5889 5889 5889 5889 5889 5889 5888 5888 5888 5888 5887 5887 5887 5887 5886 5886 5886 5886 5885 5885 5885 5884 5884 5884 5884 5884 5884 5884 5884 5884 5883 5883 5884 5884
5892 5892 5892 5892 5891 5891 5891 5890 5890 5889 5889 5889 5888 5888 5888 5887 5887 5887 5887 5886 5886 5885 5885 5885 5884 5884 5883 5883 5883 5882 5882 5882 5882 5882 5882 5882 5881 5881 5881 5881 5881 5881 5881
5893 5893 5893 5892 5892 5892 5891 5890 5890 5889 5889 5888 5888 5887 5887 5887 5886 5885 5885 5885 5884 5883 5883 5883 5882 5882 5881 5880 5880 5880 5880 5879 5879 5879 5879 5879 5878 5878 5878 5878 5877 5877 5877
5894 5893 5893 5893 5892 5892 5891 5890 5890 5889 5889 5888 5887 5887 5886 5885 5885 5884 5884 5883 5882 5882 5881 5880 5880 5879 5879 5878 5878 5877 5877 5877 5876 5876 5875 5875 5875 5875 5875 5874 5874 5874 5874
5894 5894 5893 5893 5892 5891 5890 5890 5889 5888 5888 5887 5886 5885 5885 5884 5883 5883 5882 5881 5881 5880 5879 5878 5877 5877 5876 5875 5875 5874 5874 5874 5873 5872 5872 5871 5871 5871 5870 5870 5870 5869 5870
5894 5893 5892 5892 5891 5890 5890 5889 5888 5887 5887 5886 5885 5884 5883 5882 5882 5881 5881 5880 5879 5878 5877 5876 5875 5874 5874 5873 5872 5871 5870 5870 5869 5869 5868 5867 5867 5866 5866 5865 5865 5865 5865
5893 5892 5892 5891 5890 5889 5889 5888 5887 5886 5886 5885 5884 5883 5882 5881 5880 5879 5879 5877 5877 5876 5874 5873 5872 5871 5871 5870 5869 5868 5867 5866 5865 5865 5864 5863 5862 5861 5861 5861 5860 5860 5860
5892 5891 5890 5890 5889 5888 5887 5886 5885 5884 5883 5883 5882 5881 5880 5879 5878 5877 5876 5875 5874 5873 5872 5871 5869 5868 5867 5866 5865 5864 5863 5862 5861 5860 5859 5858 5857 5856 5856 5855 5855 5854 5854
5891 5890 5889 5888 5887 5886 5885 5884 5884 5882 5881 5880 5879 5878 5877 5876 5875 5874 5874 5873 5871 5870 5869 5867 5866 5865 5863 5862 5861 5860 5859 5857 5856 5855 5854 5853 5852 5851 5850 5850 5849 5848 5848
5890 5888 5887 5886 5885 5884 5883 5882 5881 5880 5879 5878 5876 5875 5874 5873 5872 5871 5870 5869 5868 5867 5866 5864 5862 5861 5859 5858 5857 5855 5854 5853 5852 5850 5849 5848 5846 5845 5844 5844 5843 5842 5842
5888 5887 5885 5884 5883 5882 5881 5880 5878 5877 5875 5874 5873 5872 5871 5870 5869 5868 5867 5865 5864 5863 5862 5860 5858 5857 5855 5854 5852 5851 5850 5848 5846 5845 5843 5842 5841 5839 5838 5837 5836 5836 5835
5886 5884 5883 5882 5880 5879 5878 5877 5875 5874 5873 5872 5870 5869 5868 5867 5866 5865 5863 5862 5860 5859 5857 5856 5854 5852 5851 5849 5847 5846 5844 5843 5841 5839 5837 5835 5834 5833 5832 5831 5830 5829 5827
5883 5882 5880 5879 5877 5876 5875 5873 5872 5870 5870 5869 5867 5866 5865 5864 5862 5861 5859 5858 5856 5854 5853 5851 5849 5847 5845 5844 5842 5840 5838 5836 5835 5833 5831 5829 5828 5826 5825 5823 5822 5821 5819
5880 5878 5877 5875 5874 5873 5871 5869 5868 5866 5866 5865 5864 5862 5861 5860 5858 5857 5855 5853 5851 5849 5847 5846 5844 5842 5840 5838 5836 5834 5832 5830 5828 5826 5824 5822 5820 5819 5817 5815 5813 5812 5810
5875 5874 5873 5872 5870 5869 5867 5865 5863 5862 5861 5860 5859 5858 5857 5855 5853 5852 5850 5848 5846 5843 5841 5840 5838 5836 5834 5832 5830 5827 5825 5823 5821 5819 5816 5814 5812 5810 5808 5806 5805 5803 5801
5870 5870 5869 5868 5866 5865 5863 5860 5858 5856 5855 5855 5854 5853 5851 5850 5848 5846 5844 5842 5840 5837 5835 5834 5831 5829 5827 5825 5823 5820 5818 5815 5813 5810 5808 5805 5803 5801 5799 5797 5795 5793 5791
5867 5866 5866 5864 5862 5861 5859 5856 5854 5852 5851 5850 5849 5848 5846 5844 5842 5840 5838 5836 5834 5832 5830 5827 5825 5823 5820 5818 5816 5813 5810 5808 5805 5803 5799 5797 5794 5792 5789 5787 5785 5783 5781
5864 5863 5861 5860 5858 5857 5854 5852 5850 5848 5847 5846 5844 5842 5840 5838 5836 5834 5832 5830 5828 5826 5824 5821 5819 5816 5813 5811 5808 5806 5803 5800 5797 5794 5791 5788 5785 5782 5780 5777 5775 5773 5771
5860 5859 5857 5856 5854 5852 5850 5849 5846 5844 5842 5840 5839 5837 5834 5832 5829 5827 5825 5823 5821 5819 5817 5814 5812 5809 5806 5803 5801 5798 5795 5792 5789 5785 5782 5780 5776 5773 5770 5768 5765 5763 5761
5856 5854 5853 5851 5849 5848 5846 5844 5842 5839 5837 5835 5833 5830 5828 5826 5823 5821 5819 5817 5814 5812 5810 5807 5804 5801 5798 5795 5792 5790 5786 5783 5780 5777 5774 5771 5768 5764 5761 5758 5755 5753 5750
5851 5850 5848 5846 5844 5842 5840 5838 5836 5834 5831 5828 5826 5824 5822 5819 5817 5815 5812 5810 5808 5805 5802 5800 5797 5794 5791 5787 5784 5781 5778 5774 5771 5768 5765 5762 5758 5755 5752 5749 5745 5743 5740